Weather Roundup
Issued by NWS

Home | Current Version | Previous Version | Text Only | Print | Product List | Glossary On
Versions: 1 2 3 4 5 6 7 8 9 10 11 12 13 14 15 16 17 18 19 20 21 22 23 24 25 26 27 28 29 30 31 32 33 34 35 36 37 38 39 40 41 42 43 44 45 46 47 48 49 50
000
NZUS93 KARX 021159
HRRWXR

CURRENT HOURLY OBSERVATIONS ACROSS
MUCH OF THE UPPER MISSISSIPPI VALLEY
NATIONAL WEATHER SERVICE LA CROSSE WI
600 AM CST MON MAR 02 2015


...SOUTHEAST MINNESOTA...


CITY           SKY/WX    TMP DP  RH WIND       PRES   REMARKS
ROCHESTER      PTCLDY     5   3  91 NW10      30.43R WCI -10
ROCHESTER/MAYO FAIR      10   6  83 W3        30.45R
WINONA         PTCLDY    14  10  85 W5        30.49R WCI   6
AUSTIN         MOCLDY     7   3  85 CALM      30.45R
ALBERT LEA       N/A      5   1  85 CALM      30.45R
DODGE CENTER   PTCLDY     7   5  92 CALM      30.43R
PRESTON        PTCLDY     5   3  90 NW7       30.44R WCI  -7
OWATONNA       MOCLDY     3   0  85 CALM      30.46R
FARIBAULT      PTCLDY     0  -6  78 CALM      30.46S
$$

...ELSEWHERE IN MINNESOTA...


CITY           SKY/WX    TMP DP  RH WIND       PRES   REMARKS
MINNEAPOLIS    MOCLDY    10   5  80 CALM      30.46F
INTNL FALLS    MOCLDY   -12 -16  82 SW6       30.30R WCI -26
DULUTH         PTCLDY     5   1  83 W7        30.32R WCI  -7
RED WING       PTCLDY     3   0  85 CALM      30.46F
REDWOOD FALLS  PTCLDY     4   1  88 SW5       30.46R WCI  -5
MANKATO        PTCLDY     9   5  85 CALM      30.46S
FAIRMONT       PTCLDY     3   0  85 W3        30.45R
$$

...SOUTHWEST WISCONSIN...


CITY           SKY/WX    TMP DP  RH WIND       PRES   REMARKS
LA CROSSE      CLEAR     12   8  84 NW5       30.47R WCI   4
PRAIRIE DU CHI PTCLDY     7   4  85 CALM      30.49R
BOSCOBEL       PTCLDY     2  -3  80 CALM      30.48R
LONE ROCK      NOT AVBL
PLATTEVILLE    MOCLDY    10   8  91 W5        30.45R WCI   2
FORT MC COY    CLEAR      0  -4  85 CALM      30.46R
VIROQUA        FAIR      10   9  95 SW6       30.41R WCI   0
WIS DELLS      NOT AVBL
$$

...ELSEWHERE IN WISCONSIN...


CITY           SKY/WX    TMP DP  RH WIND       PRES   REMARKS
MILWAUKEE      CLEAR     18   8  65 W8        30.43R WCI   8
MADISON        PTCLDY     8   4  83 CALM      30.43R
GREEN BAY      CLEAR     11   6  81 W8        30.40R WCI  -1
EAU CLAIRE     NOT AVBL
BLACK RVR FLS  FAIR       4   0  86 CALM      30.46R
MEDFORD        PTCLDY     6   3  86 W6        30.36R WCI  -5
WAUSAU         CLEAR      8   3  80 NW7       30.37R WCI  -3
WIS RAPIDS     CLEAR      4   1  88 NW3       30.44R
MARSHFIELD     PTCLDY     6   1  80 NW7       30.40R WCI  -6
RICE LAKE      PTCLDY    -1  -4  87 CALM      30.44R
$$

...NORTHEAST IOWA...


CITY           SKY/WX    TMP DP  RH WIND       PRES   REMARKS
DECORAH        MOCLDY    10   7  85 SW5       30.45R WCI   2
MASON CITY     FAIR       0  -1  96 W6        30.48R WCI -12
CHARLES CITY   PTCLDY     5   1  85 W6        30.47R WCI  -6
OELWEIN        PTCLDY     5   1  85 NW7       30.47R WCI  -7
$$

...ELSEWHERE IN IOWA...


CITY           SKY/WX    TMP DP  RH WIND       PRES   REMARKS
DES MOINES     PTCLDY    19  12  74 CALM      30.51S
IOWA CITY      PTCLDY     9   6  88 CALM      30.54R
FORT DODGE     MOCLDY     3  -4  72 CALM      30.50R
$$

...NORTHERN ILLINOIS...


CITY           SKY/WX    TMP DP  RH WIND       PRES   REMARKS
CHICAGO-OHARE  PTCLDY    14   8  77 W10       30.45R WCI   1
CHICAGO-MIDWAY PTCLDY    16   9  74 W7        30.47R WCI   6
MOLINE         PTCLDY     5   1  83 CALM      30.52R
ROCKFORD       PTCLDY     7   2  80 CALM      30.48R
PEORIA         MOCLDY    20  12  71 N3        30.51R
$$

NOTE: "FAIR" INDICATES FEW OR NO CLOUDS BELOW 12,000 FEET WITH NO
SIGNIFICANT WEATHER AND/OR OBSTRUCTIONS TO VISIBILITY. WIND
SPEEDS ARE IN MILES-PER-HOUR.



USA.gov is the U.S. government's official web portal to all federal, state and local government web resources and services.